Weather Roundup
Issued by NWS Springfield, MO

Home | Current Version | Previous Version | Text Only | Print | Product List | Glossary On
Versions: 1 2 3 4 5 6 7 8 9 10 11 12 13 14 15 16 17 18 19 20 21 22 23 24 25 26 27 28 29 30 31 32 33 34 35 36 37 38 39 40 41 42 43 44 45 46 47 48 49 50
000
NZUS99 KSGF 281659
HRRSGF

HOURLY WEATHER
NATIONAL WEATHER SERVICE SPRINGFIELD MO
1100 AM CST SUN DEC 28 2014

......SGF CWA......

CITY           SKY/WX    TMP DP  RH WIND       PRES   REMARKS
SPRINGFIELD    CLOUDY    29  23  78 N3        30.23F
JOPLIN         MOSUNNY   28  24  85 CALM      30.27F
WEST PLAINS    CLOUDY    30  23  75 NW5       30.22F WCI  25
ROLLA          CLOUDY    29  23  78 CALM      30.22S
OSAGE BEACH    CLOUDY    28  21  74 SW5       30.25F WCI  23
BRANSON        PTSUNNY   32  25  74 CALM      30.24F

......SURROUNDING SGF CWA......

CITY           SKY/WX    TMP DP  RH WIND       PRES   REMARKS
CHANUTE        SUNNY     31  23  72 S3        30.26F
PARSONS        SUNNY     32  23  69 S5        30.28F WCI  27
COFFEYVILLE    SUNNY     31  22  69 CALM      30.28F
EMPORIA        SUNNY     33  24  69 VRB3      30.22F
SILOAM SPRINGS CLOUDY    30  21  69 CALM      30.25F
HARRISON AR    CLOUDY    30  23  75 N3        30.23S
NEAR YELLVILLE CLOUDY    32  21  64 NW6       30.25S WCI  26

......KANSAS AND MISSOURI......

CITY           SKY/WX    TMP DP  RH WIND       PRES   REMARKS
KANSAS CTY INT MOSUNNY   31  23  72 SW10      30.22F WCI  22
DOWNTOWN KC    SUNNY     33  21  61 SW6       30.25F WCI  28
COLUMBIA       PTSUNNY   29  22  75 W5        30.25F WCI  24
SEDALIA        MOSUNNY   29  23  78 SW6       30.26F WCI  23
ST JOSEPH      SUNNY     29  23  78 SW9       30.23S WCI  20
ST LOUIS       CLOUDY    34  25  69 CALM      30.25S
SPIRIT OF STL  CLOUDY    32  24  72 N3        30.25F
KIRKSVILLE     SUNNY     30  20  66 SW8       30.22F WCI  22
WICHITA        SUNNY     34  22  61 S12       30.21F WCI  25
TOPEKA         SUNNY     32  20  61 VRB3      30.24F
OLATHE         SUNNY     30  21  69 S7        30.23F WCI  23

......TENNESSEE......

CITY           SKY/WX    TMP DP  RH WIND       PRES   REMARKS
MEMPHIS        LGT RAIN  40  36  86 N8        30.22S WCI  34
NASHVILLE      LGT RAIN  41  39  93 N8        30.17S

......ARKANSAS.......

CITY           SKY/WX    TMP DP  RH WIND       PRES   REMARKS
FAYETTEVILLE   CLOUDY    31  25  78 E5        30.24F WCI  26
FT SMITH       CLOUDY    37  26  64 CALM      30.27F
LITTLE ROCK    CLOUDY    39  31  72 N8        30.25F WCI  33

......OKLAHOMA.......

CITY           SKY/WX    TMP DP  RH WIND       PRES   REMARKS
TULSA          MOSUNNY   31  23  72 CALM      30.29S
PONCA CITY     SUNNY     35  21  56 S7        30.25F WCI  29
MCALESTER      CLOUDY    32  26  78 N6        30.28S WCI  26
OKLAHOMA CITY  MOSUNNY   32  20  61 S7        30.26S WCI  26

......IOWA............

CITY           SKY/WX    TMP DP  RH WIND       PRES   REMARKS
DES MOINES     SUNNY     26  20  77 SW3       30.18S
QUAD CITIES    SUNNY     28  16  60 W3        30.21F

......ILLINOIS........

CITY           SKY/WX    TMP DP  RH WIND       PRES   REMARKS
QUINCY         PTSUNNY   28  21  75 SW5       30.24F WCI  23
CHICAGO        MOSUNNY   27  15  61 W9        30.18F WCI  18



USA.gov is the U.S. government's official web portal to all federal, state and local government web resources and services.